Humidity-temperature Sensor

Selected Measurement Type: Air Temperature

 
Air Temperature [°C]     6 entries per hour
Showing data from 6/2/2017 (00:00:00 Z) to 5/26/2017 (00:01:00 Z)
Previous Next [ Day | 3-Days | 7-Days ]
First Last
Prev [ Day | 3-Days | 7-Days ] Next
First Last

Start Time:     :
End Time:     :     
Time (in GMT) :00 :50 :40 :30 :20 :10
Previous Next [ Day | 3-Days | 7-Days ]
First Last
Prev [ Day | 3-Days | 7-Days ] Next
First Last


123 => good data
MM => data is determined as missing
-- => data not received/configured
Back to Top Back to Top
6/2/2017 00:00 to 23:10 27.74 27.42 27.49 27.54 27.36 27.46
6/1/2017 23:00 to 22:10 27.41 27.49 27.37 27.40 27.24 27.26
6/1/2017 22:00 to 21:10 27.39 27.31 27.44 27.42 27.35 27.37
6/1/2017 21:00 to 20:10 27.27 27.22 27.26 27.25 27.32 27.31
6/1/2017 20:00 to 19:10 27.33 27.31 27.23 27.21 27.17 27.18
6/1/2017 19:00 to 18:10 27.31 27.25 27.22 27.23 27.35 27.20
6/1/2017 18:00 to 17:10 27.27 27.14 27.20 27.22 27.24 27.31
6/1/2017 17:00 to 16:10 27.23 27.30 27.24 27.28 27.19 27.26
6/1/2017 16:00 to 15:10 -- -- -- -- -- --
6/1/2017 15:00 to 14:10 27.44 27.24 27.34 27.31 27.14 27.20
6/1/2017 14:00 to 13:10 27.04 27.24 27.09 27.06 27.09 27.04
6/1/2017 13:00 to 12:10 27.03 27.00 27.04 27.00 26.96 27.02
6/1/2017 12:00 to 11:10 27.08 27.05 27.07 26.96 26.94 26.99
6/1/2017 11:00 to 10:10 26.97 27.08 27.01 27.10 27.00 27.00
6/1/2017 10:00 to 9:10 27.12 27.03 27.15 27.19 27.17 27.04
6/1/2017 09:00 to 8:10 27.25 27.16 27.13 27.25 27.29 27.26
6/1/2017 08:00 to 7:10 27.31 27.32 27.39 27.30 27.36 27.38
6/1/2017 07:00 to 6:10 27.33 27.26 27.36 27.30 27.48 27.33
6/1/2017 06:00 to 5:10 27.34 27.35 27.37 27.30 27.37 27.29
6/1/2017 05:00 to 4:10 27.45 27.34 27.34 27.40 27.41 27.39
6/1/2017 04:00 to 3:10 27.39 27.40 27.38 27.35 27.43 27.50
6/1/2017 03:00 to 2:10 27.32 27.38 27.40 27.45 27.48 27.31
6/1/2017 02:00 to 1:10 27.50 27.45 27.33 27.37 27.34 27.37
6/1/2017 01:00 to 0:10 27.38 27.35 27.37 27.42 27.42 27.36
6/1/2017 00:00 to 23:10 -- -- -- -- -- --
5/31/2017 23:00 to 22:10 27.55 27.62 27.67 27.49 27.53 27.52
5/31/2017 22:00 to 21:10 27.48 27.48 27.47 27.46 27.47 27.47
5/31/2017 21:00 to 20:10 27.39 27.47 27.41 27.38 27.45 27.45
5/31/2017 20:00 to 19:10 27.33 27.37 27.42 27.39 27.29 27.43
5/31/2017 19:00 to 18:10 27.34 27.24 27.28 27.32 27.37 27.45
5/31/2017 18:00 to 17:10 27.42 27.40 27.43 27.28 27.31 27.35
5/31/2017 17:00 to 16:10 27.35 27.36 27.43 27.34 27.41 27.38
5/31/2017 16:00 to 15:10 27.30 27.27 27.29 27.26 27.34 27.25
5/31/2017 15:00 to 14:10 -- -- -- -- -- --
5/31/2017 14:00 to 13:10 27.31 27.17 27.22 27.23 27.11 27.07
5/31/2017 13:00 to 12:10 27.10 27.08 27.23 27.11 27.11 27.17
5/31/2017 12:00 to 11:10 27.24 27.10 27.12 27.02 27.13 27.10
5/31/2017 11:00 to 10:10 27.09 27.09 27.14 27.13 27.16 27.13
5/31/2017 10:00 to 9:10 27.13 27.14 27.07 27.05 26.89 27.04
5/31/2017 09:00 to 8:10 27.01 27.02 27.24 27.08 27.12 27.13
5/31/2017 08:00 to 7:10 27.14 27.13 27.11 27.14 27.16 27.18
5/31/2017 07:00 to 6:10 -- -- -- -- -- --
5/31/2017 06:00 to 5:10 -- -- -- -- -- --
5/31/2017 05:00 to 4:10 -- -- -- -- -- --
5/31/2017 04:00 to 3:10 -- -- -- -- -- --
5/31/2017 03:00 to 2:10 -- -- -- -- -- --
5/31/2017 02:00 to 1:10 -- -- -- -- -- --
5/31/2017 01:00 to 0:10 -- -- -- -- -- --
5/31/2017 00:00 to 23:10 -- -- -- -- -- --
5/30/2017 23:00 to 22:10 -- -- -- -- -- --
5/30/2017 22:00 to 21:10 -- -- -- -- -- --
5/30/2017 21:00 to 20:10 -- -- -- -- -- --
5/30/2017 20:00 to 19:10 -- -- -- -- -- --
5/30/2017 19:00 to 18:10 -- -- -- -- -- --
5/30/2017 18:00 to 17:10 -- -- -- -- -- --
5/30/2017 17:00 to 16:10 -- -- -- -- -- --
5/30/2017 16:00 to 15:10 -- -- -- -- -- --
5/30/2017 15:00 to 14:10 -- -- -- -- -- --
5/30/2017 14:00 to 13:10 -- -- -- -- -- --
5/30/2017 13:00 to 12:10 -- -- -- -- -- --
5/30/2017 12:00 to 11:10 -- -- -- -- -- --
5/30/2017 11:00 to 10:10 -- -- -- -- -- --
5/30/2017 10:00 to 9:10 -- -- -- -- -- --
5/30/2017 09:00 to 8:10 -- -- -- -- -- --
5/30/2017 08:00 to 7:10 -- -- -- -- -- --
5/30/2017 07:00 to 6:10 -- -- -- -- -- --
5/30/2017 06:00 to 5:10 -- -- -- -- -- --
5/30/2017 05:00 to 4:10 27.51 27.60 27.51 27.60 27.57 27.54
5/30/2017 04:00 to 3:10 27.54 27.57 27.55 27.52 27.54 27.55
5/30/2017 03:00 to 2:10 27.49 27.57 27.59 27.54 27.56 27.62
5/30/2017 02:00 to 1:10 27.66 27.65 27.61 27.62 27.74 27.79
5/30/2017 01:00 to 0:10 27.91 27.95 28.10 28.06 28.17 28.20
5/30/2017 00:00 to 23:10 27.87 27.94 27.95 28.09 27.86 27.86
5/29/2017 23:00 to 22:10 27.73 27.96 27.85 27.72 27.68 27.70
5/29/2017 22:00 to 21:10 27.79 27.87 27.83 27.79 27.70 27.71
5/29/2017 21:00 to 20:10 27.83 27.66 27.68 27.68 27.74 27.75
5/29/2017 20:00 to 19:10 27.80 27.67 27.69 27.71 27.72 27.77
5/29/2017 19:00 to 18:10 27.68 27.76 27.75 27.74 27.75 27.82
5/29/2017 18:00 to 17:10 27.85 27.91 27.92 27.98 27.92 27.89
5/29/2017 17:00 to 16:10 27.77 27.68 27.80 27.75 27.74 27.75
5/29/2017 16:00 to 15:10 27.81 28.00 28.29 28.22 28.21 27.91
5/29/2017 15:00 to 14:10 28.38 28.32 28.52 28.32 28.33 27.82
5/29/2017 14:00 to 13:10 27.73 27.57 27.32 27.28 27.22 27.25
5/29/2017 13:00 to 12:10 27.21 27.23 27.20 27.16 27.17 27.12
5/29/2017 12:00 to 11:10 27.11 27.13 27.13 27.20 27.14 27.11
5/29/2017 11:00 to 10:10 27.21 27.32 27.19 27.16 27.24 27.14
5/29/2017 10:00 to 9:10 27.28 27.21 27.16 27.11 27.21 27.33
5/29/2017 09:00 to 8:10 27.23 27.22 27.32 27.31 27.39 27.23
5/29/2017 08:00 to 7:10 27.35 27.32 27.26 27.35 27.36 27.42
5/29/2017 07:00 to 6:10 27.43 27.45 27.45 27.45 27.41 27.42
5/29/2017 06:00 to 5:10 27.46 27.33 27.42 27.44 27.45 27.46
5/29/2017 05:00 to 4:10 27.49 27.53 27.65 27.53 27.50 27.51
5/29/2017 04:00 to 3:10 27.62 27.55 27.58 27.60 27.49 27.51
5/29/2017 03:00 to 2:10 27.52 27.52 27.54 27.55 27.50 27.66
5/29/2017 02:00 to 1:10 27.60 27.64 27.61 27.66 27.67 27.92
5/29/2017 01:00 to 0:10 27.90 27.99 27.93 27.86 27.88 27.92
5/29/2017 00:00 to 23:10 -- -- -- -- -- --
5/28/2017 23:00 to 22:10 27.86 27.76 27.88 27.78 27.71 27.72
5/28/2017 22:00 to 21:10 27.63 27.70 27.71 27.69 27.76 27.75
5/28/2017 21:00 to 20:10 27.83 27.83 27.71 27.73 27.66 27.61
5/28/2017 20:00 to 19:10 27.59 27.62 27.59 27.59 27.64 27.49
5/28/2017 19:00 to 18:10 27.55 27.57 27.51 27.60 27.51 27.50
5/28/2017 18:00 to 17:10 -- -- -- -- -- --
5/28/2017 17:00 to 16:10 27.37 27.39 27.31 27.37 27.29 27.40
5/28/2017 16:00 to 15:10 27.37 27.44 27.41 27.60 27.68 27.49
5/28/2017 15:00 to 14:10 27.55 27.42 27.53 27.48 27.42 27.32
5/28/2017 14:00 to 13:10 27.33 27.28 27.11 27.13 27.03 27.00
5/28/2017 13:00 to 12:10 26.96 26.92 26.99 26.97 26.91 27.00
5/28/2017 12:00 to 11:10 26.90 26.88 26.90 26.79 26.90 26.93
5/28/2017 11:00 to 10:10 26.97 26.93 26.88 26.90 26.88 26.99
5/28/2017 10:00 to 9:10 26.87 26.92 26.95 26.97 26.99 26.97
5/28/2017 09:00 to 8:10 27.00 26.91 26.96 27.05 27.18 27.17
5/28/2017 08:00 to 7:10 27.09 27.10 27.16 27.29 27.20 27.23
5/28/2017 07:00 to 6:10 27.28 27.29 27.30 27.27 27.24 27.23
5/28/2017 06:00 to 5:10 27.30 27.28 27.34 27.30 27.35 27.33
5/28/2017 05:00 to 4:10 27.24 27.32 27.27 27.22 27.20 27.26
5/28/2017 04:00 to 3:10 27.23 27.26 27.33 27.25 27.32 27.25
5/28/2017 03:00 to 2:10 27.29 27.27 27.32 27.24 27.26 27.25
5/28/2017 02:00 to 1:10 27.44 27.22 27.31 27.29 27.26 27.35
5/28/2017 01:00 to 0:10 27.43 27.68 27.55 27.64 27.72 27.68
5/28/2017 00:00 to 23:10 27.76 27.78 27.78 27.76 27.71 27.73
5/27/2017 23:00 to 22:10 27.80 27.64 27.63 27.55 27.68 27.66
5/27/2017 22:00 to 21:10 27.62 27.56 27.57 27.60 27.61 27.58
5/27/2017 21:00 to 20:10 27.59 27.63 27.44 27.39 27.36 27.51
5/27/2017 20:00 to 19:10 27.46 27.41 27.39 27.44 27.38 27.53
5/27/2017 19:00 to 18:10 27.46 27.39 27.42 27.42 27.44 27.52
5/27/2017 18:00 to 17:10 27.46 27.49 27.36 27.38 27.44 27.45
5/27/2017 17:00 to 16:10 27.37 27.32 27.34 27.43 27.43 27.49
5/27/2017 16:00 to 15:10 27.59 27.45 27.52 27.47 27.30 27.30
5/27/2017 15:00 to 14:10 27.52 27.56 27.39 27.47 27.38 27.31
5/27/2017 14:00 to 13:10 27.33 27.18 27.22 27.12 27.11 27.16
5/27/2017 13:00 to 12:10 27.12 27.18 27.15 27.05 27.16 27.09
5/27/2017 12:00 to 11:10 27.16 27.02 27.03 27.06 27.22 27.16
5/27/2017 11:00 to 10:10 27.11 27.01 27.13 27.07 27.07 27.17
5/27/2017 10:00 to 9:10 27.16 27.13 27.11 27.21 27.11 27.10
5/27/2017 09:00 to 8:10 27.16 27.18 27.16 27.29 27.38 27.31
5/27/2017 08:00 to 7:10 27.21 27.31 27.27 27.36 27.34 27.40
5/27/2017 07:00 to 6:10 27.34 27.39 27.51 27.45 27.50 27.52
5/27/2017 06:00 to 5:10 27.54 27.55 27.43 27.58 27.54 27.52
5/27/2017 05:00 to 4:10 27.59 27.53 27.54 27.53 27.57 27.63
5/27/2017 04:00 to 3:10 27.65 27.63 27.63 27.73 27.72 27.68
5/27/2017 03:00 to 2:10 27.66 27.59 27.64 27.65 27.64 27.69
5/27/2017 02:00 to 1:10 27.66 27.60 27.64 27.58 27.63 27.58
5/27/2017 01:00 to 0:10 27.64 27.95 27.65 27.81 27.98 28.01
5/27/2017 00:00 to 23:10 28.04 28.14 28.02 27.95 27.95 27.87
5/26/2017 23:00 to 22:10 27.96 27.92 27.90 27.87 27.96 27.77
5/26/2017 22:00 to 21:10 27.89 27.90 27.93 27.74 27.81 27.75
5/26/2017 21:00 to 20:10 27.81 27.81 27.81 27.77 27.75 27.76
5/26/2017 20:00 to 19:10 27.63 27.68 27.67 27.70 27.68 27.72
5/26/2017 19:00 to 18:10 27.75 27.69 27.63 27.63 27.56 27.61
5/26/2017 18:00 to 17:10 27.61 27.64 27.67 27.71 27.58 27.58
5/26/2017 17:00 to 16:10 27.64 27.65 27.64 27.65 27.49 27.60
5/26/2017 16:00 to 15:10 27.56 27.56 27.54 27.59 27.65 27.50
5/26/2017 15:00 to 14:10 27.58 27.55 27.56 27.62 27.55 27.56
5/26/2017 14:00 to 13:10 27.54 27.42 27.41 27.39 27.42 27.38
5/26/2017 13:00 to 12:10 27.42 27.45 27.36 27.46 27.35 27.29
5/26/2017 12:00 to 11:10 27.26 27.32 27.29 27.25 27.26 27.33
5/26/2017 11:00 to 10:10 -- -- -- -- -- --
5/26/2017 10:00 to 9:10 27.27 27.36 27.34 27.33 27.40 27.34
5/26/2017 09:00 to 8:10 27.36 27.38 27.44 27.40 27.44 27.49
5/26/2017 08:00 to 7:10 27.48 27.60 27.52 27.55 27.49 27.55
5/26/2017 07:00 to 6:10 27.39 27.52 27.45 27.53 27.53 27.61
5/26/2017 06:00 to 5:10 27.56 27.59 27.61 27.71 27.61 27.71
5/26/2017 05:00 to 4:10 27.72 27.77 27.68 27.61 27.56 27.62
5/26/2017 04:00 to 3:10 27.65 27.64 27.66 27.62 27.57 27.58
5/26/2017 03:00 to 2:10 27.56 27.58 27.56 27.62 27.68 27.61
5/26/2017 02:00 to 1:10 27.63 27.66 27.69 27.65 27.65 27.63
5/26/2017 01:00 to 0:10 27.69 27.74 27.83 27.87 27.72 27.94